Location: Unspecified
(0.0000°N, 0.0000°E)
Time: 07:31:57
(UTC+00:00)

Tiros 1 - All Passes

Search period start: 20 October 2021 00:00
Search period end: 30 October 2021 00:00
Orbit: 630 x 663 km, 48.4° (Epoch: 20 October)

Date Brightness Start Highest point End Pass type
(mag) Time Alt. Az. Time Alt. Az. Time Alt. Az.
20 Oct - 07:09:52 10° SSE 07:12:21 14° SE 07:14:49 10° E daylight
20 Oct - 08:49:47 10° SW 08:54:25 48° NW 08:59:02 10° NNE daylight
20 Oct - 19:21:38 10° N 19:25:16 23° NE 19:28:56 10° ESE visible
20 Oct - 21:03:27 10° WNW 21:07:16 26° SW 21:11:07 10° S night (unlit)
21 Oct - 07:33:42 10° SSW 07:38:15 43° SE 07:42:49 10° ENE daylight
21 Oct - 09:17:31 10° W 09:20:19 15° NW 09:23:06 10° NNW daylight
21 Oct - 19:46:32 10° NW 19:51:08 80° NE 19:55:44 10° SE visible
22 Oct - 06:20:07 10° SSE 06:22:01 12° SE 06:23:55 10° ESE daylight
22 Oct - 07:59:25 10° SW 08:04:06 55° NW 08:08:47 10° NNE daylight
22 Oct - 18:31:34 10° N 18:34:59 20° NE 18:38:23 10° E visible
22 Oct - 20:12:59 10° WNW 20:16:58 29° SW 20:20:59 10° S visible
23 Oct - 06:43:30 10° SSW 06:47:57 38° SE 06:52:23 10° ENE daylight
23 Oct - 08:26:50 10° W 08:29:59 17° NW 08:33:09 10° N daylight
23 Oct - 18:56:16 10° NNW 19:00:50 69° NE 19:05:25 10° SE visible
24 Oct - 05:30:43 10° SE 05:31:41 11° SE 05:32:39 10° ESE daylight
24 Oct - 07:09:02 10° SW 07:13:48 63° NW 07:18:32 10° NNE daylight
24 Oct - 17:41:32 10° N 17:44:40 18° NE 17:47:49 10° E daylight
24 Oct - 19:22:32 10° WNW 19:26:41 33° SW 19:30:51 10° SSE visible
25 Oct - 05:53:19 10° SSW 05:57:38 33° SE 06:01:57 10° ENE daylight
25 Oct - 07:36:12 10° W 07:39:40 20° NW 07:43:08 10° N daylight
25 Oct - 18:06:00 10° NNW 18:10:33 60° NE 18:15:06 10° SE visible
25 Oct - 19:52:08 10° SW 19:52:37 10° SW 19:53:07 10° SW visible
26 Oct - 06:18:42 10° SW 06:23:29 73° NW 06:28:16 10° NNE daylight
26 Oct - 16:51:34 10° NNE 16:54:23 16° NE 16:57:11 10° E daylight
26 Oct - 18:32:06 10° WNW 18:36:23 38° SW 18:40:40 10° SSE visible
27 Oct - 05:03:09 10° S 05:07:19 29° SE 05:11:28 10° ENE visible
27 Oct - 06:45:37 10° WSW 06:49:21 22° NW 06:53:04 10° N daylight
27 Oct - 17:15:46 10° NNW 17:20:16 52° NE 17:24:45 10° SE daylight
27 Oct - 19:00:38 10° WSW 19:02:18 12° SW 19:03:59 10° SSW visible
28 Oct - 05:28:22 10° SW 05:33:09 83° NW 05:37:58 10° NE daylight
28 Oct - 16:01:39 10° NNE 16:04:03 14° NE 16:06:27 10° E daylight
28 Oct - 17:41:42 10° WNW 17:46:05 43° SW 17:50:29 10° SSE daylight
29 Oct - 04:13:01 10° S 04:17:00 26° SE 04:20:58 10° ENE visible
29 Oct - 05:55:06 10° WSW 05:59:01 25° NW 06:02:58 10° N daylight
29 Oct - 16:25:32 10° NNW 16:29:58 45° NE 16:34:22 10° SE daylight
29 Oct - 18:09:42 10° W 18:12:00 14° SW 18:14:16 10° SSW visible
